| time (UTC) | temp C | wind direction | speed KPH | gust KPH | rain 1hr cm | rain 24hr cm | rain mn cm | humidity % | barometer mb |
| 20260903221545 | 19 | 28 | 8.0 | 20.9 | 0.00 | 1.22 | 0.89 | 92 | 1011.9 |
| 20260903220059 | 20 | 26 | 17.7 | 20.9 | 0.00 | 1.22 | 0.89 | 92 | 1011.7 |
| 20260903214543 | 20 | 50 | 8.0 | 14.5 | 0.00 | 1.35 | 0.89 | 92 | 1010.6 |
| 20260903213047 | 20 | 144 | 6.4 | 12.9 | 0.03 | 1.35 | 0.89 | 92 | 1010.4 |
| 20260903211542 | 20 | 109 | 8.0 | 16.1 | 0.05 | 1.35 | 0.89 | 92 | 1010.9 |
| 20260903210049 | 20 | 106 | 4.8 | 11.3 | 0.08 | 1.35 | 0.89 | 92 | 1012.2 |
| 20260903204541 | 20 | 34 | 4.8 | 9.7 | 0.20 | 1.93 | 0.89 | 92 | 1013.3 |
| 20260903203040 | 20 | 360 | 6.4 | 11.3 | 0.28 | 1.91 | 0.86 | 92 | 1013.3 |
| 20260903201540 | 20 | 111 | 6.4 | 9.7 | 0.71 | 1.88 | 0.84 | 92 | 1012.6 |
| 20260903200039 | 20 | 355 | 0.0 | 1.6 | 0.76 | 1.85 | 0.81 | 91 | 1013.4 |
| 20260903194547 | 20 | 5 | 0.0 | 6.4 | 0.69 | 1.73 | 0.69 | 91 | 1013.5 |
| 20260903193045 | 20 | 23 | 3.2 | 17.7 | 0.58 | 1.63 | 0.58 | 89 | 1013.2 |
| 20260903191534 | 20 | 5 | 4.8 | 9.7 | 0.10 | 1.14 | 0.10 | 90 | 1013.3 |
| 20260903190033 | 21 | 38 | 8.0 | 22.5 | 0.05 | 1.09 | 0.05 | 89 | 1012.5 |
| 20260903184532 | 21 | 29 | 17.7 | 22.5 | 0.00 | 1.04 | 0.00 | 88 | 1012.0 |
| 20260903183032 | 22 | 44 | 9.7 | 16.1 | 0.00 | 1.04 | 0.00 | 87 | 1012.0 |
| 20260903181532 | 22 | 55 | 9.7 | 17.7 | 0.00 | 1.04 | 0.00 | 86 | 1011.6 |
| 20260903180029 | 23 | 96 | 8.0 | 17.7 | 0.00 | 1.04 | 0.00 | 85 | 1011.6 |
| 20260903174529 | 23 | 65 | 8.0 | 16.1 | 0.00 | 1.04 | 0.00 | 83 | 1012.0 |
| 20260903173028 | 24 | 84 | 3.2 | 12.9 | 0.00 | 1.04 | 0.00 | 82 | 1012.2 |
| 20260903171525 | 25 | 132 | 1.6 | 9.7 | 0.00 | 1.04 | 0.00 | 79 | 1012.3 |
| 20260903170028 | 25 | 117 | 6.4 | 12.9 | 0.00 | 1.04 | 0.00 | 79 | 1012.5 |
| 20260903164522 | 24 | 90 | 6.4 | 14.5 | 0.00 | 1.04 | 0.00 | 81 | 1012.5 |
| 20260903163021 | 25 | 138 | 8.0 | 11.3 | 0.00 | 1.04 | 0.00 | 78 | 1012.6 |
| 20260903161519 | 25 | 143 | 1.6 | 9.7 | 0.00 | 1.04 | 0.00 | 78 | 1012.9 |
| 20260903160019 | 24 | 132 | 4.8 | 11.3 | 0.00 | 1.04 | 0.00 | 76 | 1012.8 |
| 20260903154515 | 24 | 100 | 3.2 | 8.0 | 0.00 | 1.04 | 0.00 | 76 | 1012.7 |
| 20260903153010 | 24 | 114 | 3.2 | 14.5 | 0.00 | 1.04 | 0.00 | 75 | 1012.6 |
| 20260903151505 | 23 | 58 | 8.0 | 14.5 | 0.00 | 1.04 | 0.00 | 77 | 1012.3 |
| 20260903150004 | 23 | 45 | 6.4 | 12.9 | 0.00 | 1.04 | 0.00 | 80 | 1012.3 |
| 20260903144557 | 23 | 80 | 8.0 | 14.5 | 0.00 | 1.04 | 0.00 | 82 | 1012.0 |
| 20260903143102 | 22 | 45 | 8.0 | 14.5 | 0.00 | 1.04 | 0.00 | 89 | 1012.1 |
| 20260903141550 | 22 | 30 | 6.4 | 14.5 | 0.00 | 1.04 | 0.00 | 93 | 1012.0 |
| 20260903140046 | 21 | 74 | 6.4 | 16.1 | 0.00 | 1.04 | 0.00 | 94 | 1012.0 |
| 20260903134551 | 21 | 85 | 4.8 | 8.0 | 0.00 | 1.04 | 0.00 | 95 | 1012.1 |
| 20260903133043 | 20 | 92 | 3.2 | 9.7 | 0.00 | 1.04 | 0.00 | 95 | 1012.2 |
| 20260903131549 | 20 | 80 | 3.2 | 6.4 | 0.00 | 1.04 | 0.00 | 94 | 1012.3 |
| 20260903130041 | 20 | 55 | 1.6 | 4.8 | 0.00 | 1.04 | 0.00 | 95 | 1012.5 |
| 20260903124539 | 20 | 55 | 3.2 | 8.0 | 0.00 | 1.04 | 0.00 | 94 | 1012.4 |
| 20260903123037 | 19 | 23 | 4.8 | 6.4 | 0.00 | 1.04 | 0.00 | 94 | 1012.4 |
| 20260903121536 | 19 | 27 | 6.4 | 9.7 | 0.00 | 1.04 | 0.00 | 94 | 1012.4 |
| 20260903120036 | 18 | 32 | 3.2 | 4.8 | 0.00 | 1.04 | 0.00 | 94 | 1012.2 |
| 20260903114533 | 18 | 32 | 3.2 | 6.4 | 0.00 | 1.04 | 0.00 | 94 | 1012.1 |
| 20260903113030 | 18 | 32 | 3.2 | 4.8 | 0.00 | 1.04 | 0.00 | 94 | 1012.0 |
| 20260903111526 | 18 | 32 | 3.2 | 4.8 | 0.00 | 1.04 | 0.00 | 94 | 1011.8 |
| 20260903110024 | 18 | 32 | 1.6 | 4.8 | 0.00 | 1.04 | 0.00 | 94 | 1011.6 |
| 20260903104524 | 18 | 32 | 3.2 | 8.0 | 0.00 | 1.04 | 0.00 | 94 | 1011.5 |
| 20260903103023 | 18 | 33 | 6.4 | 9.7 | 0.00 | 1.04 | 0.00 | 94 | 1011.7 |
| 20260903101521 | 18 | 5 | 1.6 | 3.2 | 0.00 | 1.04 | 0.00 | 94 | 1011.5 |
| 20260903100019 | 18 | 5 | 1.6 | 4.8 | 0.00 | 1.04 | 0.00 | 94 | 1011.4 |
| 20260903094518 | 19 | 5 | 1.6 | 8.0 | 0.00 | 1.04 | 0.00 | 94 | 1011.3 |
| 20260903093025 | 20 | 360 | 6.4 | 9.7 | 0.00 | 1.04 | 0.00 | 94 | 1011.3 |
| 20260903091517 | 18 | 19 | 1.6 | 3.2 | 0.00 | 1.04 | 0.00 | 94 | 1011.1 |
| 20260903090015 | 18 | 19 | 1.6 | 4.8 | 0.00 | 1.04 | 0.00 | 94 | 1010.9 |
| 20260903084516 | 18 | 30 | 0.0 | 1.6 | 0.00 | 1.04 | 0.00 | 94 | 1010.9 |
| 20260903083012 | 19 | 30 | 1.6 | 4.8 | 0.00 | 1.04 | 0.00 | 93 | 1011.1 |
| 20260903081529 | 19 | 30 | 1.6 | 4.8 | 0.00 | 1.04 | 0.00 | 93 | 1011.0 |
| 20260903080009 | 20 | 323 | 0.0 | 1.6 | 0.00 | 1.04 | 0.00 | 94 | 1011.1 |
| 20260903074509 | 20 | 323 | 0.0 | 1.6 | 0.00 | 1.04 | 0.00 | 93 | 1011.0 |
| 20260903073009 | 20 | 14 | 0.0 | 3.2 | 0.00 | 1.04 | 0.00 | 93 | 1010.9 |
| 20260903071512 | 20 | 14 | 0.0 | 1.6 | 0.00 | 1.04 | 0.00 | 93 | 1010.8 |
| 20260903070006 | 20 | 14 | 0.0 | 1.6 | 0.00 | 1.04 | 0.00 | 93 | 1010.8 |
| 20260903064505 | 20 | 14 | 0.0 | 3.2 | 0.00 | 1.04 | 0.00 | 93 | 1010.8 |
| 20260903063004 | 20 | 14 | 0.0 | 0.0 | 0.00 | 1.04 | 0.00 | 93 | 1011.0 |
| 20260903061504 | 20 | 14 | 0.0 | 0.0 | 0.00 | 1.04 | 0.00 | 93 | 1011.3 |
| 20260903054558 | 20 | 256 | 0.0 | 0.0 | 0.00 | 1.04 | 0.00 | 93 | 1011.3 |
| 20260903053058 | 20 | 256 | 0.0 | 0.0 | 0.00 | 1.04 | 0.00 | 93 | 1011.3 |
| 20260903051555 | 20 | 256 | 0.0 | 0.0 | 0.00 | 1.04 | 0.00 | 93 | 1010.9 |
| 20260903050051 | 20 | 256 | 0.0 | 4.8 | 0.00 | 1.04 | 0.00 | 93 | 1010.7 |
| 20260903044553 | 20 | 236 | 0.0 | 0.0 | 0.00 | 1.04 | 0.00 | 93 | 1010.3 |
| 20260903043049 | 20 | 236 | 0.0 | 0.0 | 0.00 | 1.04 | 0.00 | 93 | 1010.3 |
| 20260903041547 | 20 | 231 | 0.0 | 4.8 | 0.00 | 1.04 | 0.00 | 93 | 1010.4 |
| 20260903040044 | 20 | 245 | 1.6 | 4.8 | 0.00 | 1.04 | 0.00 | 93 | 1010.4 |
| 20260903034542 | 20 | 274 | 0.0 | 0.0 | 0.00 | 1.04 | 1.04 | 93 | 1010.1 |
| 20260903033042 | 20 | 275 | 0.0 | 0.0 | 0.00 | 1.04 | 1.04 | 93 | 1009.9 |
| 20260903031543 | 20 | 274 | 0.0 | 0.0 | 0.00 | 1.04 | 1.04 | 93 | 1009.7 |
| 20260903030041 | 20 | 274 | 1.6 | 6.4 | 0.00 | 1.04 | 1.04 | 93 | 1009.6 |
| 20260903024541 | 20 | 273 | 0.0 | 0.0 | 0.00 | 1.04 | 1.04 | 92 | 1009.9 |
| 20260903023056 | 20 | 273 | 0.0 | 0.0 | 0.00 | 1.04 | 1.04 | 92 | 1010.4 |
| 20260903021545 | 20 | 273 | 0.0 | 0.0 | 0.00 | 1.04 | 1.04 | 92 | 1010.4 |
| 20260903020037 | 20 | 273 | 0.0 | 0.0 | 0.00 | 1.04 | 1.04 | 92 | 1010.4 |
| 20260903014536 | 20 | 273 | 0.0 | 0.0 | 0.00 | 1.04 | 1.04 | 92 | 1010.2 |
| 20260903013039 | 20 | 273 | 0.0 | 0.0 | 0.03 | 1.04 | 1.04 | 92 | 1010.3 |
| 20260903011535 | 21 | 273 | 0.0 | 0.0 | 0.03 | 1.04 | 1.04 | 92 | 1010.3 |
| 20260903010034 | 21 | 273 | 0.0 | 3.2 | 0.03 | 1.04 | 1.04 | 92 | 1010.2 |
| 20260903004534 | 21 | 273 | 0.0 | 3.2 | 0.15 | 1.04 | 1.04 | 92 | 1010.0 |
| 20260903003034 | 21 | 269 | 1.6 | 3.2 | 0.30 | 1.02 | 1.02 | 91 | 1010.0 |
| 20260903001534 | 21 | 213 | 0.0 | 9.7 | 0.30 | 1.02 | 1.02 | 91 | 1009.7 |
| 20260903000031 | 21 | 278 | 0.0 | 4.8 | 0.30 | 1.02 | 1.02 | 91 | 1009.8 |
| 20260902234529 | 22 | 186 | 6.4 | 11.3 | 0.13 | 0.84 | 0.84 | 91 | 1010.5 |
| 20260902233026 | 22 | 223 | 0.0 | 3.2 | 0.00 | 0.71 | 0.71 | 91 | 1009.6 |
| 20260902231530 | 22 | 223 | 0.0 | 3.2 | 0.00 | 0.71 | 0.71 | 90 | 1009.6 |
| 20260902230016 | 21 | 225 | 1.6 | 8.0 | 0.00 | 0.71 | 0.71 | 91 | 1010.4 |
| 20260902224514 | 21 | 165 | 4.8 | 12.9 | 0.03 | 0.71 | 0.71 | 91 | 1010.2 |
| 20260902223012 | 21 | 165 | 8.0 | 22.5 | 0.13 | 0.71 | 0.71 | 91 | 1010.1 |